(264921) = 2002 TQ312

Discovered at Apache Point on 2002-10-04 by Sloan Digital Sky Survey.

Orbit

Orbit type: Main Belt

Note: WebGL enabled browser required.

epoch2023-09-13.0
epoch JD2460200.5
perihelion date2022-06-15.54159
perihelion JD2459746.04159
argument of perihelion (°)137.90518
ascending node (°)92.20298
inclination (°)8.16073
eccentricity0.0451202
perihelion distance (AU)2.2140928
Tisserand w.r.t. Jupiter3.6
ΔV w.r.t. Earth (km/sec)9.6
semimajor axis (AU)2.3187136
mean anomaly (°)126.86077
mean daily motion (°/day)0.27914710
aphelion distance (AU)2.423
period (years)3.53
P-vector [x]-0.63455716
P-vector [y]-0.74155630
P-vector [z]-0.21778768
Q-vector [x]0.75974802
Q-vector [y]-0.54678445
Q-vector [z]-0.35186604
absolute magnitude16.97
phase slope0.15
uncertainty0
referenceMPEC 2023-X165
observations used414
oppositions15
arc length (days)7735
first opposition used2002
last opposition used2023
residual rms (arc-secs)0.66
perturbers coarse indicatorM-v
perturbers precise indicator003Ek
first observation date used2002-10-04.0
last observation date used2023-12-08.0
computer nameMPCLINUX
JD of orbit computation2456700.396238
perihelion JD uncertainty (days)1.3404E-04
argument of perihelion uncertainty (°)4.8950E-05
ascending node uncertainty (°)2.7048E-05
inclination uncertainty (°)2.8710E-06
eccentricity uncertainty 4.0022E-08
perihelion distance uncertainty (AU)9.1109E-08
Minimum Orbit Intersection Distances (in AU)
for orbit epoch: 2460200.5, reference: E2023-VG7
Mercury1.75602
Venus1.49221
Earth1.20723
Mars0.63844
Jupiter2.56882
Saturn6.64913
Uranus16.1856
Neptune27.4313

Observations

417 total observations over interval: 2002 10 04.38344 – 2023 12 08.135404
These data are available for download (format description).

Date (UT) J2000 RA J2000 Dec Magn Location Ref
2002 10 04.38344 02 22 04.697 +00 55 15.20 20.45 V 645 – Apache Point-Sloan Digital Sky Survey MPS 83049
2002 10 04.383440 02 22 04.695 +00 55 15.20 20.46 V 645 – Apache Point-Sloan Digital Sky Survey MPS 83049
2002 10 04.386912 02 22 04.530 +00 55 14.12 21.48   645 – Apache Point-Sloan Digital Sky Survey MPS 83049
2002 10 05.428860 02 21 15.824 +00 49 59.90 20.52 V 645 – Apache Point-Sloan Digital Sky Survey MPS 83049
2002 10 05.432332 02 21 15.655 +00 49 58.71 21.42   645 – Apache Point-Sloan Digital Sky Survey MPS 83049
2002 10 10.400330 02 17 05.186 +00 25 22.78 20.35 V 645 – Apache Point-Sloan Digital Sky Survey MPS 83378
2002 10 10.403802 02 17 04.995 +00 25 21.77 21.18   645 – Apache Point-Sloan Digital Sky Survey MPS 83378
2002 10 29.233120 01 58 37.070 -00 48 50.89 20.26 V 645 – Apache Point-Sloan Digital Sky Survey MPS 83049
2002 10 29.236592 01 58 36.850 -00 48 51.47 21.16   645 – Apache Point-Sloan Digital Sky Survey MPS 83049
2002 11 07.228660 01 49 58.239 -01 05 23.61 20.36 V 645 – Apache Point-Sloan Digital Sky Survey MPS 83049
2002 11 07.232132 01 49 58.043 -01 05 23.83 21.28   645 – Apache Point-Sloan Digital Sky Survey MPS 83049
2004 02 16.32907 11 16 24.16 +18 25 14.0 19.8   704 – Lincoln Laboratory ETS, New Mexico MPS 104280
2004 02 16.35290 11 16 23.07 +18 25 26.1 20.4   704 – Lincoln Laboratory ETS, New Mexico MPS 104280
2004 02 16.36461 11 16 22.54 +18 25 33.5 20.2   704 – Lincoln Laboratory ETS, New Mexico MPS 104280
2004 02 16.37623 11 16 21.85 +18 25 39.2 20.4   704 – Lincoln Laboratory ETS, New Mexico MPS 104280
2004 03 15.30696 10 50 34.82 +21 51 33.6 19.6   704 – Lincoln Laboratory ETS, New Mexico MPS 103120
2004 03 15.32850 10 50 33.59 +21 51 39.7 20.2   704 – Lincoln Laboratory ETS, New Mexico MPS 103120
2004 03 15.33919 10 50 32.98 +21 51 41.9 19.8   704 – Lincoln Laboratory ETS, New Mexico MPS 103120
2004 03 15.34996 10 50 32.50 +21 51 44.5 19.9   704 – Lincoln Laboratory ETS, New Mexico MPS 103120
2004 03 23.23740 10 44 00.62 +22 17 36.9 20.4   704 – Lincoln Laboratory ETS, New Mexico MPS 103120
2004 03 23.24843 10 44 00.10 +22 17 37.8 20.4   704 – Lincoln Laboratory ETS, New Mexico MPS 103120
2004 03 23.28212 10 43 58.54 +22 17 41.4 20.5   704 – Lincoln Laboratory ETS, New Mexico MPS 103120
2005 08 04.35942 21 35 55.73 -24 49 34.9 19.4   644 – Palomar Mountain/NEAT MPS 138872
2005 08 04.38447 21 35 54.23 -24 49 47.0 19.8   644 – Palomar Mountain/NEAT MPS 138872
2005 08 04.40647 21 35 52.97 -24 49 57.8 19.5   644 – Palomar Mountain/NEAT MPS 138872
2007 01 08.08432 05 28 46.23 +23 19 19.9 20.7 V 691 – Steward Observatory, Kitt Peak-Spacewatch MPS 195477
2007 01 08.10512 05 28 45.01 +23 19 23.8 20.8 V 691 – Steward Observatory, Kitt Peak-Spacewatch MPS 195477
2007 01 08.12593 05 28 43.85 +23 19 27.5 20.6 V 691 – Steward Observatory, Kitt Peak-Spacewatch MPS 195477
2008 04 30.26358 15 51 11.27 -10 00 10.3 19.9 V 691 – Steward Observatory, Kitt Peak-Spacewatch MPS 248094
2008 04 30.27873 15 51 10.46 -10 00 09.2 19.8 V 691 – Steward Observatory, Kitt Peak-Spacewatch MPS 248094
2008 04 30.29388 15 51 09.64 -10 00 08.2 19.7 V 691 – Steward Observatory, Kitt Peak-Spacewatch MPS 248094
2008 05 01.26938 15 50 18.70 -09 59 02.9 19.7 V 691 – Steward Observatory, Kitt Peak-Spacewatch MPS 248094
2008 05 01.28700 15 50 17.74 -09 59 01.7 19.9 V 691 – Steward Observatory, Kitt Peak-Spacewatch MPS 248094
2008 05 01.30756 15 50 16.51 -09 58 58.6 19.5 V 691 – Steward Observatory, Kitt Peak-Spacewatch MPS 248094
2008 05 05.25994 15 46 38.45 -09 55 11.2 20.2 V 691 – Steward Observatory, Kitt Peak-Spacewatch MPS 248932
2008 05 05.27760 15 46 37.41 -09 55 10.3 19.7 V 691 – Steward Observatory, Kitt Peak-Spacewatch MPS 248932
2008 05 05.29527 15 46 36.36 -09 55 09.8 19.6 V 691 – Steward Observatory, Kitt Peak-Spacewatch MPS 248932
2008 05 13.32588 15 38 32.36 -09 51 12.7 20.0   704 – Lincoln Laboratory ETS, New Mexico MPS 249791
2008 05 13.33642 15 38 31.76 -09 51 12.7 19.8   704 – Lincoln Laboratory ETS, New Mexico MPS 249791
2008 05 13.34695 15 38 31.00 -09 51 11.1 19.9   704 – Lincoln Laboratory ETS, New Mexico MPS 249791
2008 05 28.16389 15 23 26.40 -10 01 49.2 19.7 V 691 – Steward Observatory, Kitt Peak-Spacewatch MPS 250396
2008 05 28.18497 15 23 25.16 -10 01 51.2 19.7 V 691 – Steward Observatory, Kitt Peak-Spacewatch MPS 250396
2008 05 28.20261 15 23 24.12 -10 01 53.4 19.8 V 691 – Steward Observatory, Kitt Peak-Spacewatch MPS 250396
2008 05 28.25309 15 23 21.15 -10 01 58.1 19.5 V G96 – Mt. Lemmon Survey MPS 250396
2008 05 28.25909 15 23 20.76 -10 01 58.9 19.5 V G96 – Mt. Lemmon Survey MPS 250396
2008 05 28.26509 15 23 20.40 -10 01 59.4 19.5 V G96 – Mt. Lemmon Survey MPS 250396
2008 05 28.27106 15 23 20.04 -10 02 00.0 19.6 V G96 – Mt. Lemmon Survey MPS 250396
2011 01 28.45626 10 46 31.94 +19 18 40.1 20.1 V 703 – Catalina Sky Survey MPS 366944
2011 01 28.46380 10 46 31.58 +19 18 44.1 20.2 V 703 – Catalina Sky Survey MPS 366944
2011 01 28.47144 10 46 31.40 +19 18 49.7 20.6 V 703 – Catalina Sky Survey MPS 366944
2011 01 28.47905 10 46 31.22 +19 18 53.4 20.3 V 703 – Catalina Sky Survey MPS 366944
2011 02 05.42181 10 41 23.24 +20 31 04.0 19.5 V 703 – Catalina Sky Survey MPS 369452
2011 02 05.44267 10 41 22.27 +20 31 15.5 19.8 V 703 – Catalina Sky Survey MPS 369452
2011 02 05.45311 10 41 21.66 +20 31 20.6 19.4 V 703 – Catalina Sky Survey MPS 369452
2011 03 05.19321 10 15 21.96 +24 10 14.0 20.6 V 703 – Catalina Sky Survey MPS 374754
2011 03 05.20128 10 15 21.45 +24 10 16.5 19.9 V 703 – Catalina Sky Survey MPS 374754
2011 03 05.20935 10 15 21.06 +24 10 18.6 20.1 V 703 – Catalina Sky Survey MPS 374754
2011 03 05.21742 10 15 20.55 +24 10 21.1 20.2 V 703 – Catalina Sky Survey MPS 374754
2012 07 21.66418 21 01 19.02 -25 17 14.9 19.3 V E12 – Siding Spring Survey MPS 428900
2012 07 21.67564 21 01 18.37 -25 17 20.2 19.8 V E12 – Siding Spring Survey MPS 428900
2012 07 21.68712 21 01 17.72 -25 17 26.0 20.1 V E12 – Siding Spring Survey MPS 428900
2012 07 21.69880 21 01 16.89 -25 17 30.9 19.8 V E12 – Siding Spring Survey MPS 428900
2012 07 28.43163 20 54 49.752 -26 11 35.18 19.3 i F51 – Pan-STARRS 1, Haleakala MPS 429010
2012 07 28.43385 20 54 49.609 -26 11 36.17 19.6 i F51 – Pan-STARRS 1, Haleakala MPS 429010
2012 07 28.44257 20 54 49.068 -26 11 40.27 19.3 i F51 – Pan-STARRS 1, Haleakala MPS 429010
2012 07 28.44481 20 54 48.931 -26 11 41.27 19.3 i F51 – Pan-STARRS 1, Haleakala MPS 429010
2012 08 12.41055 20 39 59.466 -27 50 00.21 20.3 g F51 – Pan-STARRS 1, Haleakala MPS 429946
2012 08 12.42073 20 39 58.870 -27 50 03.43 20.1 g F51 – Pan-STARRS 1, Haleakala MPS 429946
2012 11 03.215696 20 56 55.380 -25 29 32.24 21.7 w F51 – Pan-STARRS 1, Haleakala MPS 441423
2012 11 03.220407 20 56 55.714 -25 29 30.30 21.4 w F51 – Pan-STARRS 1, Haleakala MPS 441423
2012 11 03.225186 20 56 56.060 -25 29 28.36 21.5 w F51 – Pan-STARRS 1, Haleakala MPS 441423
2012 11 03.229944 20 56 56.405 -25 29 26.58 21.4 w F51 – Pan-STARRS 1, Haleakala MPS 441423
2013 12 01.63368 05 29 07.00 +19 42 11.8 19.2 R D29 – Purple Mountain Observatory, XuYi Station MPS 490850
2013 12 01.64959 05 29 05.97 +19 42 13.8 20.5 R D29 – Purple Mountain Observatory, XuYi Station MPS 490850
2013 12 01.66549 05 29 04.70 +19 42 17.3 19.7 R D29 – Purple Mountain Observatory, XuYi Station MPS 490850
2013 12 24.24668 05 03 29.85 +20 36 58.0 19.5 V G96 – Mt. Lemmon Survey MPS 493230
2013 12 24.25664 05 03 29.19 +20 36 59.2 19.7 V G96 – Mt. Lemmon Survey MPS 493230
2013 12 24.26660 05 03 28.53 +20 37 00.8 19.8 V G96 – Mt. Lemmon Survey MPS 493230
2014 01 20.27978 04 44 09.93 +21 49 25.1 20.8 V G96 – Mt. Lemmon Survey MPS 498300
2014 01 20.28556 04 44 09.83 +21 49 26.2 20.0 V G96 – Mt. Lemmon Survey MPS 498300
2014 01 20.29013 04 44 09.75 +21 49 27.5 20.6 V G96 – Mt. Lemmon Survey MPS 498300
2014 01 20.29471 04 44 09.64 +21 49 27.9 20.3 V G96 – Mt. Lemmon Survey MPS 498300
2015 01 20.64132 14 35 20.983 -06 26 38.53 21.4 w F51 – Pan-STARRS 1, Haleakala MPS 566739
2015 01 20.64658 14 35 21.412 -06 26 39.88 21.2 w F51 – Pan-STARRS 1, Haleakala MPS 566739
2015 01 20.65185 14 35 21.830 -06 26 41.33 21.5 w F51 – Pan-STARRS 1, Haleakala MPS 566739
